This demonstration page uses our WeatherBlox Daily Observations layout. Learn more.

Left ArrowRight Arrow

Hourly Observations for August 22, 2015

Temp ( °F °C ) Dew Point ( °F °C ) Humidity (%) Winds ( mph kmh ) Pressure ( in mb ) Visibility ( mi km ) Precip ( " mm )
12:15 am 00:15 Partly Cloudy 71 21.5 67 19.5 88 88 S 14 22 29.68 1005 7 11 N/A
12:35 am 00:35 Mostly Cloudy 70 21.3 67 19.6 90 90 S 14 22 29.71 1006 7 11 N/A
12:55 am 00:55 Mostly Cloudy 70 21.2 67 19.5 90 90 S 13 20 29.71 1006 7 11 N/A
1:15 am 01:15 Mostly Cloudy 70 21.1 67 19.5 91 91 S 13 20 29.71 1006 7 11 N/A
1:35 am 01:35 Cloudy 70 21.2 67 19.7 91 91 S 14 22 29.71 1006 7 11 N/A
1:55 am 01:55 Cloudy 70 21.2 67 19.7 91 91 S 14 22 29.71 1006 7 11 N/A
2:15 am 02:15 Cloudy 70 21.3 68 19.8 91 91 S 13 20 29.71 1006 7 11 N/A
2:35 am 02:35 Cloudy 71 21.5 68 19.9 91 91 SSE 14 22 29.68 1005 7 11 N/A
2:55 am 02:55 Cloudy 71 21.5 68 20 91 91 S 12 19 29.68 1005 7 11 N/A
3:15 am 03:15 Cloudy 71 21.5 68 19.9 91 91 S 16 26 29.65 1004 7 11 N/A
3:35 am 03:35 Cloudy 71 21.5 68 19.8 90 90 SSE 16 26 29.65 1004 7 11 N/A
3:55 am 03:55 Cloudy 70 21.2 67 19.6 91 91 S 13 20 29.65 1004 7 11 N/A
4:15 am 04:15 Cloudy 70 21 67 19.5 91 91 SSE 12 19 29.65 1004 7 11 N/A
4:35 am 04:35 Mostly Cloudy 70 21 67 19.6 92 92 SSE 15 24 29.65 1004 7 11 N/A
4:55 am 04:55 Mostly Cloudy 69 20.8 67 19.5 92 92 SSE 15 24 29.65 1004 7 11 N/A
5:15 am 05:15 Partly Cloudy 69 20.5 67 19.2 92 92 SSE 12 19 29.65 1004 7 11 N/A
5:35 am 05:35 Partly Cloudy 69 20.3 66 19 92 92 S 12 19 29.68 1005 7 11 N/A
5:55 am 05:55 Clear 68 20.2 66 18.8 92 92 S 16 26 29.65 1004 7 11 N/A
6:15 am 06:15 Clear 68 20.2 66 18.7 91 91 S 16 26 29.65 1004 7 11 N/A
6:35 am 06:35 Clear 68 20 65 18.6 92 92 S 14 22 29.65 1004 10 16 N/A
6:55 am 06:55 Clear 68 20 65 18.5 91 91 S 9 15 29.68 1005 10 16 N/A
7:15 am 07:15 Sunny 67 19.7 65 18.4 92 92 SE 7 11 29.68 1005 7 11 N/A
7:35 am 07:35 Partly Cloudy 67 19.6 65 18.3 92 92 SE 9 15 29.65 1004 7 11 N/A
7:55 am 07:55 Partly Cloudy 68 19.8 65 18.4 92 92 SSE 8 13 29.68 1005 10 16 N/A
8:15 am 08:15 Partly Cloudy 68 20.1 65 18.6 91 91 SSE 12 19 29.65 1004 10 16 N/A
8:35 am 08:35 Mostly Cloudy 69 20.6 66 19 91 91 S 10 17 29.62 1003 10 16 N/A
8:55 am 08:55 Cloudy 70 21.1 66 19.1 88 88 S 14 22 29.62 1003 10 16 N/A
9:15 am 09:15 Mostly Cloudy 71 21.5 67 19.5 88 88 S 10 17 29.65 1004 10 16 N/A
9:35 am 09:35 Mostly Cloudy 73 22.5 68 20 86 86 SSW 14 22 29.65 1004 10 16 N/A
9:55 am 09:55 Cloudy 72 22.4 68 19.8 85 85 SSW 13 20 29.65 1004 10 16 N/A
10:15 am 10:15 Mostly Cloudy 74 23.1 69 20.3 84 84 SSW 14 22 29.65 1004 10 16 N/A
10:35 am 10:35 Partly Cloudy 74 23.6 69 20.6 83 83 S 13 20 29.65 1004 10 16 N/A
10:55 am 10:55 Partly Cloudy 76 24.5 70 20.9 80 80 S 13 20 29.59 1002 10 16 N/A
11:15 am 11:15 Partly Cloudy 77 25 70 20.9 78 78 SW 10 17 29.62 1003 10 16 N/A
11:35 am 11:35 Partly Cloudy 78 25.6 70 21.2 77 77 SSW 7 11 29.65 1004 10 16 N/A
11:55 am 11:55 Partly Cloudy 79 26.1 70 21.3 75 75 SSW 7 11 29.65 1004 10 16 N/A
12:15 pm 12:15 Sunny 80 26.7 70 21.3 72 72 SSW 7 11 29.65 1004 10 16 N/A
12:35 pm 12:35 Sunny 80 26.9 70 21.1 71 71 W 5 7 29.65 1004 10 16 N/A
12:55 pm 12:55 Sunny 81 27 70 21.2 71 71 NW 6 9 29.68 1005 10 16 N/A
1:15 pm 13:15 Partly Cloudy 80 26.8 69 20.8 70 70 NNW 10 17 29.68 1005 10 16 N/A
1:35 pm 13:35 Partly Cloudy 81 27.1 70 20.9 69 69 NNW 5 7 29.68 1005 10 16 N/A
1:55 pm 13:55 Mostly Cloudy 80 26.8 70 21 71 71 NNW 9 15 29.68 1005 10 16 N/A
2:15 pm 14:15 Mostly Cloudy with Haze 79 26.1 64 17.7 60 60 N 17 28 29.71 1006 5 8 N/A
2:35 pm 14:35 Partly Cloudy 78 25.5 63 17.1 60 60 N 17 28 29.74 1007 7 11 N/A
2:55 pm 14:55 Mostly Cloudy 77 25.1 61 16.3 58 58 N 18 30 29.77 1008 7 11 N/A
3:15 pm 15:15 Cloudy 77 25 61 16.1 58 58 N 21 33 29.80 1009 7 11 N/A
3:35 pm 15:35 Cloudy 76 24.6 60 15.8 58 58 N 15 24 29.80 1009 7 11 N/A
3:55 pm 15:55 Cloudy 76 24.4 60 15.6 58 58 N 15 24 29.80 1009 7 11 N/A
4:15 pm 16:15 Cloudy 74 23.2 57 14.1 57 57 N 15 24 29.80 1009 7 11 N/A
4:35 pm 16:35 Mostly Cloudy 73 22.5 57 14.1 59 59 N 8 13 29.83 1010 7 11 N/A
4:55 pm 16:55 Partly Cloudy 73 23 57 13.8 56 56 NNE 18 30 29.80 1009 7 11 N/A
5:15 pm 17:15 Partly Cloudy 71 21.8 56 13.1 58 58 N 13 20 29.85 1011 7 11 N/A
5:35 pm 17:35 Partly Cloudy 71 21.7 55 12.6 56 56 N 9 15 29.88 1012 7 11 N/A
5:55 pm 17:55 Sunny 72 22.4 57 13.9 59 59 N 13 20 29.88 1012 7 11 N/A
6:15 pm 18:15 Sunny 71 21.7 57 14 62 62 NNE 9 15 29.88 1012 7 11 N/A
6:35 pm 18:35 Sunny 71 21.8 58 14.6 64 64 N 6 9 29.88 1012 7 11 N/A
6:55 pm 18:55 Sunny 71 21.5 56 13.5 60 60 N 7 11 29.88 1012 7 11 N/A
7:15 pm 19:15 Sunny 69 20.6 58 14.7 69 69 N 5 7 29.88 1012 7 11 N/A
7:35 pm 19:35 Sunny 68 20.1 59 15 73 73 N 5 7 29.88 1012 7 11 N/A
7:55 pm 19:55 Sunny 67 19.3 59 15 76 76 N 5 7 29.94 1014 7 11 N/A
8:15 pm 20:15 Sunny 66 19 59 15 78 78 NNW 5 7 29.94 1014 7 11 N/A
8:35 pm 20:35 Clear 66 18.9 58 14.6 76 76 NNW 5 7 29.97 1015 7 11 N/A
8:55 pm 20:55 Clear 66 19 55 12.5 66 66 N 7 11 29.97 1015 10 16 N/A
9:15 pm 21:15 Clear 65 18.3 54 12.3 68 68 N 8 13 29.97 1015 10 16 N/A
9:35 pm 21:35 Clear 64 17.9 53 11.8 68 68 N 9 15 29.97 1015 7 11 N/A
9:55 pm 21:55 Clear 64 17.6 51 10.5 63 63 N 7 11 30.00 1016 10 16 N/A
10:15 pm 22:15 Clear 61 16 51 10.8 71 71 N 8 13 30.03 1017 10 16 N/A
10:35 pm 22:35 Clear 60 15.3 51 10.6 74 74 N 8 13 30.06 1018 10 16 N/A
10:55 pm 22:55 Clear 58 14.7 51 10.5 76 76 N 6 9 30.06 1018 10 16 N/A
11:15 pm 23:15 Clear 58 14.6 50 9.8 73 73 N 9 15 30.06 1018 10 16 N/A
11:35 pm 23:35 Clear 57 14.1 49 9.6 75 75 N 8 13 30.09 1019 10 16 N/A
11:55 pm 23:55 Clear 59 15 47 8.6 66 66 N 13 20 30.09 1019 10 16 N/A

Powered by AerisWeather